Location: Newark
(45.2500°N, 7.5833°E)
Time: 01:55:30
(UTC+00:00)

Vanguard 3 - Pass Details

Date: 27 January 2020
Orbit: 508 x 3263 km, 33.3° (Epoch: 21 February)

Event Time Altitude Azimuth Distance (km) Brightness Sun altitude
Rises 20:01:09 0° 268° (W) 7,233 12.9 -37.2°
Reaches altitude 10° 20:06:23 10° 264° (W) 6,157 12.3 -38.1°
Maximum altitude 20:23:53 48° 199° (SSW) 3,187 9.9 -41.1°
Enters shadow 20:25:58 46° 180° (S) 3,114 9.8 -41.4°
Drops below altitude 10° 20:35:39 10° 130° (SE) 4,244 - -43.1°
Sets 20:38:32 0° 124° (SE) 4,913 - -43.5°
